Date,TemperatureHighF,TemperatureAvgF,TemperatureLowF,DewpointHighF,DewpointAvgF,DewpointLowF,HumidityHigh,HumidityAvg,HumidityLow,PressureMaxIn,PressureMinIn,WindSpeedMaxMPH,WindSpeedAvgMPH,GustSpeedMaxMPH,PrecipitationSumIn
2013-2-1,18,14,10,13,10,6,90,83,72,30.14,29.86,13,2,13,0.00
2013-2-2,17,11,6,10,6,1,89,80,59,30.11,30.04,10,1,10,0.00
2013-2-3,18,14,8,14,9,3,90,81,70,30.04,29.83,16,2,16,0.00
2013-2-4,20,14,6,12,9,4,89,79,63,30.01,29.94,7,1,8,0.00
2013-2-5,24,16,6,20,12,3,91,83,69,30.02,29.70,15,2,16,0.00
2013-2-6,28,20,8,21,13,5,92,77,55,30.26,30.02,12,1,16,0.00
2013-2-7,29,26,21,27,24,19,94,91,86,30.23,30.08,10,1,11,0.00
2013-2-8,26,19,4,20,15,1,92,85,69,30.42,30.09,13,2,15,0.00
2013-2-9,33,15,-4,19,8,-7,93,77,51,30.46,30.23,10,1,10,0.00
2013-2-10,38,29,14,35,23,11,92,80,63,30.23,29.52,17,3,17,0.00
2013-2-11,40,35,27,38,32,22,96,90,79,29.77,29.36,20,4,20,0.16
2013-2-12,28,26,25,24,22,19,89,83,75,29.96,29.77,18,2,19,0.00
2013-2-13,40,32,25,31,27,21,91,83,68,29.85,29.67,14,1,14,0.05
2013-2-14,36,32,23,34,30,21,96,93,88,29.85,29.58,17,1,17,0.10
2013-2-15,23,20,15,21,16,10,92,84,74,30.14,29.84,12,2,12,0.00
2013-2-16,24,13,-2,14,8,-5,91,81,55,30.19,30.06,10,1,10,0.00
2013-2-17,21,12,-2,15,7,-5,89,81,65,30.23,30.14,5,0,5,0.00
2013-2-18,39,29,14,34,21,9,92,72,59,30.14,29.44,15,3,16,0.06
2013-2-19,41,28,15,39,25,13,94,90,86,29.85,29.19,24,5,26,0.13
2013-2-20,18,14,12,14,9,6,91,81,74,30.32,29.85,19,5,21,0.00
2013-2-21,26,16,12,16,11,8,91,78,59,30.47,30.32,16,2,18,0.00
2013-2-22,30,26,19,27,24,16,93,89,83,30.34,29.82,14,2,17,0.00
2013-2-23,34,29,27,29,27,25,95,90,78,29.85,29.76,8,1,8,0.02
2013-2-24,36,29,21,28,26,19,95,87,67,30.15,29.83,10,1,11,0.00
2013-2-25,38,32,29,29,27,24,94,80,61,30.20,30.13,7,0,7,0.01
2013-2-26,36,31,23,28,26,20,90,80,68,30.18,29.76,23,3,23,0.01
2013-2-27,36,33,32,32,30,27,96,90,81,29.77,29.64,20,4,20,0.01
2013-2-28,32,30,24,31,25,16,96,82,68,30.10,29.69,17,4,17,0.00